Погода в Селендуме

Россия / Республика Бурятия     50°55′02″N   106°14′09″E
темп.,
°C
ветер,
м/с
пор.,
м/с
влажн.,
%
обл.,
%
осадки,
мм/ч
давл.,
гПа
погр.,
м
17 мая, вт
вт1723:00+12сз1148100 0.0 100911
02:00+11сз114894 0.0 101011
05:00+10сз114793 0.0 100911
08:00+16зюз243682 0.0 1011312
11:00+14ссз2563100 0.7 1012525
14:00+20сз463892 1.2 10092122
17:00+21ссз783536 0.0 10091866
20:00+16с12515 0.0 101012
18 мая, ср
ср1823:00+13зсз225214 0.0 101212
02:00+11зсз22603 0.0 101312
05:00+9зсз22685 0.0 101311
08:00+16з12475 0.0 1014257
11:00+21ссв243296 0.0 10132045
14:00+23св362778 0.0 10122250
17:00+24ссв562556 0.0 10101742
20:00+19св22373 0.0 101227
19 мая, чт
чт1923:00+15сз21475 0.0 101311
02:00+13зсз11548 0.0 101411
05:00+11сз115711 0.0 101411
08:00+18ююз12395 0.0 1014272
11:00+25юз23265 0.0 10121279
14:00+27зсз332299 0.0 10103255
17:00+27ююв122311 0.1 10081811
20:00+22сз22355 0.1 100933
20 мая, пт
пт2023:00+18зюз224591 0.0 101013
02:00+15зсз115550 0.0 101011
05:00+13сз115881 0.0 100911
08:00+19ююз11406 0.0 1009257
11:00+25ю123067 0.0 10071015
14:00+28в132398 0.0 10052228
17:00+28св451992 0.0 10041491
20:00+23ссв333035 0.0 100534
21 мая, сб
сб2123:00+19с3339100 0.0 100734
02:00+16ссз3455100 0.0 100967
05:00+14с3677100 0.1 1010150
08:00+16ссз81259100 0.1 10121095
11:00+13с91566100 0.4 10151193
14:00+11ссз3876100 3.9 1017524
17:00+18с3639100 0.1 10151722
20:00+16зсз224598 0.1 101318